Home > Weather > Lille > Past weeks

Flag for France Weather for the Past 2 Weeks in Lille, France

Now
54 °F

Clear.


Feels Like: 49 °F
Forecast: 44 / 51 °F
Wind: 18 mph from South

Location: Lille Airport

Current Time: Feb 7, 2016 at 12:51:48 AM

Latest Report: Feb 7, 2016 at 12:00 AM


Visibility: 10 mi

Pressure: 29.39 "Hg

Humidity: 63%

Dew point: 41 °F

Location of LilleLocation

Historic Weather in Lille — Graph

°F

Lille Temperature Yesterday

Maximum temperature yesterday: 54 °F (at 11:30 PM)
Minimum temperature yesterday: 46 °F (at 6:30 AM)
Average temperature yesterday: 50 °F

High & Low Weather Summary for the Past Weeks

 TemperatureHumidityPressure
High54 °F (Jan 25, 1:30 PM)100% (Jan 22, 11:00 PM)30.54 "Hg (Jan 22, 11:00 PM)
Low36 °F (Feb 4, 2:00 AM)46% (Jan 28, 3:00 PM)29.39 "Hg (Feb 6, 11:00 PM)
Average47 °F86%30.13 "Hg
* Reported Jan 22 11:00 PM — Feb 6 11:30 PM, Lille, Weather by CustomWeather, © 2016

Note: Actual official high and low records may vary slightly from our data, if they occured in-between our weather recording intervals... More about our weather records

Advertising

Lille Weather History for the Previous 24 Hours

 ConditionsComfort  
Time TempWeatherWind HumidityBarometerVisibility
11:30 PM
Sat, Feb 6
54 °FClear.18 mph63%29.39 "Hg10 mi
11:00 PM52 °FClear.20 mph67%29.39 "Hg10 mi
10:00 PM50 °FClear.17 mph71%29.42 "Hg10 mi
9:30 PM50 °FClear.17 mph71%29.45 "Hg10 mi
9:00 PM50 °FClear.16 mph76%29.45 "Hg10 mi
8:30 PM52 °FClear.17 mph67%29.45 "Hg10 mi
8:00 PM50 °FClear.14 mph71%29.47 "Hg10 mi
7:30 PM50 °FClear.13 mph76%29.50 "Hg10 mi
7:00 PM52 °FClear.14 mph72%29.53 "Hg10 mi
6:30 PM52 °FClear.15 mph67%29.53 "Hg10 mi
6:00 PM52 °FClear.14 mph72%29.56 "Hg10 mi
5:30 PM52 °FSunny.15 mph72%29.56 "Hg10 mi
5:00 PM52 °FSunny.15 mph72%29.59 "Hg10 mi
4:30 PM52 °FSunny.18 mph72%29.59 "Hg10 mi
4:00 PM52 °FPassing clouds.20 mph72%29.62 "HgN/A
3:30 PM52 °FMostly cloudy.22 mph77%29.62 "HgN/A
3:00 PM52 °FMostly cloudy.20 mph77%29.65 "HgN/A
2:30 PM52 °FOvercast.23 mph77%29.65 "HgN/A
2:00 PM52 °FOvercast.24 mph77%29.68 "HgN/A
1:30 PM52 °FOvercast.23 mph77%29.71 "HgN/A
1:00 PM52 °FMostly cloudy.22 mph77%29.71 "HgN/A
12:30 PM52 °FMostly cloudy.24 mph77%29.74 "HgN/A
12:00 PM50 °FMostly cloudy.21 mph76%29.77 "HgN/A
11:30 AM50 °FOvercast.20 mph76%29.77 "HgN/A
11:00 AM48 °FOvercast.17 mph82%29.80 "HgN/A
10:30 AM48 °FOvercast.16 mph82%29.80 "HgN/A
10:00 AM48 °FOvercast.16 mph82%29.83 "HgN/A
9:30 AM46 °FOvercast.18 mph87%29.83 "HgN/A
9:00 AM46 °FMostly cloudy.16 mph87%29.83 "HgN/A
8:30 AM46 °FPartly sunny.14 mph87%29.83 "HgN/A
8:00 AM46 °FOvercast.13 mph87%29.83 "HgN/A
7:30 AM46 °FPassing clouds.12 mph87%29.83 "HgN/A
7:00 AM46 °FPassing clouds.14 mph87%29.83 "HgN/A
6:30 AM46 °FPassing clouds.13 mph87%29.83 "HgN/A
6:00 AM48 °FOvercast.13 mph87%29.86 "HgN/A
5:00 AM48 °FOvercast.14 mph87%29.86 "HgN/A
4:30 AM48 °FOvercast.13 mph87%29.89 "HgN/A
4:00 AM48 °FMostly cloudy.13 mph87%29.89 "HgN/A
3:30 AM48 °FMostly cloudy.12 mph87%29.92 "HgN/A
3:00 AM48 °FMostly cloudy.13 mph87%29.92 "HgN/A
2:30 AM48 °FMostly cloudy.15 mph87%29.92 "HgN/A
1:30 AM48 °FMostly cloudy.10 mph87%29.95 "HgN/A
1:00 AM48 °FMostly cloudy.10 mph87%29.98 "HgN/A
12:30 AM48 °FOvercast.14 mph87%29.98 "HgN/A
12:00 AM48 °FMostly cloudy.16 mph87%30.01 "HgN/A
Weather by CustomWeather, © 2016

See weather overviewHow to use our weather pages